Location: Unspecified
(0.0000°N, 0.0000°E)
Time: 11:19:59
(UTC+00:00)

Vanguard 3 - Pass Details

Date: 22 November 2019
Orbit: 508 x 3263 km, 33.3° (Epoch: 13 December)

Event Time Altitude Azimuth Distance (km) Brightness Sun altitude
Rises 10:35:47 0° 250° (WSW) 5,032 11.1 63.5°
Reaches altitude 10° 10:38:41 10° 254° (WSW) 4,353 10.9 64.0°
Maximum altitude 10:51:20 55° 329° (NNW) 3,105 10.6 65.8°
Drops below altitude 10° 11:10:10 10° 42° (NE) 6,188 11.7 68.0°
Sets 11:15:20 0° 46° (NE) 7,207 11.9 68.5°
